STARLINK-32921, 62920

Orbit data source: Space-Track

STARLINK-32921, 62920 is a payload satellite owned by SpaceX/Seattle (US) in LEO that was launched on Sat, 08 Feb 2025 UTC via an FALCON 9 launch vehicle from the Air Force Eastern Test Range (AFETR). Payload-class satellites include a variety of spacecraft equipped with specific instruments for various scientific and technological missions. These include communications satellites like Starlink; space stations such as the ISS; scientific satellites like the Hubble; Earth observation satellites from companies like Planet Labs, Umbra, and HawkEye 360; GPS; miniature CubeSats for education and research; and military/defense satellites.

Loading next visibility...
Identifier
62920, 2025-027P
Orbit
LEO
Country
Flag of USUS
Related business
Manufacturer
SpaceX/Seattle
Mission
Operational Commercial Communications
Bus & Motor
STARLINK V2M, Unknown motor
Mass
730 kg wet, ~700 kg dry
Launch date (UTC)
2025-02-08 (10 months ago)
Launch vehicle
FALCON 9
Launch site
Air Force Eastern Test Range (AFETR)
Object type
Payload
Rocket body
Debris
Shape & HBR
Box + 2 Pan, 17.7 m
Radar Cross Section
33.884 m², Large (>1 m²)

Expand to show TLE details & history
Last TLE update: 22 hours ago

TLE from 22 hours ago
0 STARLINK-32921
1 62920U 25027P   25346.66670139  .00075684  00000-0  27331-2 0  9991
2 62920  42.9994 260.1977 0001357 271.3348 130.9662 15.27563254  5871
Epoch: 2025-12-12T16:00Z
TLE epoch observation values (Epoch: 2025-12-12T16:00:03.000Z)
Latitude
27.42993°
Longitude
-27.81167°
Altitude
483.894 km
Speed
7.627 km/s
True Right ascension
19h 35m 13s
True Declination
27° 17' 02"
Sunlit
Object was in daylight at epoch
Visualization orbit readout
Latitude
Unknown
Longitude
Unknown
Altitude
Unknown
Speed
Unknown
Apparent Right ascension
Unknown
Apparent Declination
Unknown
Sunlit
N/A
Visualization observer readout
Local Sidereal Time
12:05:31
Azimuth
Unknown
Elevation
Unknown
Doppler factor
Unknown
Orbital elements
Apogee altitude
485.976 km
Perigee altitude
484.113 km
Semi-major axis
6,863.181 km
Eccentricity
0.00014
Inclination
42.9994°
RAAN
260.1977°
Arg. of periapsis
271.3348°
True anomaly
130.97794°
Mean anomaly
130.9662°
Eccentric anomaly
130.97207°
Mean motion
3.81729 °/min
Orbital period
94.31 mins
BSTAR
0.0027331
Loading maneuver chart data...
Computing Atmospheric mass density...
Loading historical data...
Loading historical data...
Loading historical data...
Loading historical data...
Loading historical data...
Loading historical data...
Loading historical data...

Documentation

Showing up to 5 results
|